Location: The Saddle
(36.8333°N, 80.3417°W)
Time: 09:39:51
(UTC-04:00)

Courier 1B - Pass Details

Date: 24 January 2022
Orbit: 962 x 1209 km, 28.3° (Epoch: 26 May)

Event Time Altitude Azimuth Distance (km) Brightness Sun altitude
Rises 02:18:01 0° 261° (W) 4,016 - -61.1°
Reaches altitude 10° 02:22:37 10° 237° (WSW) 2,999 - -60.3°
Maximum altitude 02:25:55 13° 210° (SSW) 2,698 - -59.7°
Drops below altitude 10° 02:29:10 10° 183° (S) 2,910 - -59.2°
Sets 02:33:30 0° 158° (SSE) 3,803 - -58.4°
